KAL74 RKSI-RJFF

Flight info

Callsign KAL74
Flight time N/A
Altitude 37000
Route OSPOT2E/33L OSPOT Y782 TGU Y781 BESNA Y209 SARUP
Aircraft A339/H-SADE1E2E3GHIJ3J5M1P2RWXY/LB2D1

Departure

Time 2026-05-07 14:55
Airport Incheon International Airport (RKSI)

Arrival

Time N/A
Airport Fukuoka Airport (RJFF)
Time Latitude Longitude Altitude Speed Heading
2026-05-07 14:26 37.46573 126.43416 37 ft 0 kts 319°
2026-05-07 14:39 37.46570 126.43420 39 ft 2 kts 319°
2026-05-07 14:40 37.46556 126.43435 41 ft 2 kts 319°
2026-05-07 14:40 37.46549 126.43443 37 ft 2 kts 319°
2026-05-07 14:40 37.46536 126.43456 36 ft 2 kts 312°
2026-05-07 14:40 37.46524 126.43470 36 ft 2 kts 300°
2026-05-07 14:41 37.46515 126.43487 38 ft 0 kts 231°
2026-05-07 14:44 37.46509 126.43482 37 ft 3 kts 222°
2026-05-07 14:44 37.46466 126.43477 37 ft 12 kts 176°
2026-05-07 14:45 37.46386 126.43527 39 ft 0 kts 148°
2026-05-07 14:45 37.46333 126.43572 39 ft 15 kts 144°
2026-05-07 14:45 37.46252 126.43644 37 ft 14 kts 144°
2026-05-07 14:45 37.46242 126.43749 39 ft 13 kts 63°
2026-05-07 14:46 37.46292 126.43852 38 ft 15 kts 54°
2026-05-07 14:46 37.46355 126.43962 38 ft 16 kts 54°
2026-05-07 14:46 37.46422 126.44079 38 ft 17 kts 54°
2026-05-07 14:46 37.46496 126.44208 38 ft 18 kts 54°
2026-05-07 14:47 37.46528 126.44265 38 ft 8 kts 55°
2026-05-07 14:47 37.46564 126.44332 38 ft 12 kts 55°
2026-05-07 14:47 37.46599 126.44396 38 ft 1 kts 56°
2026-05-07 14:47 37.46610 126.44417 38 ft 7 kts 56°
2026-05-07 14:48 37.46628 126.44467 37 ft 4 kts 59°
2026-05-07 14:48 37.46633 126.44474 38 ft 0 kts 52°
2026-05-07 14:49 37.46647 126.44497 38 ft 8 kts 52°
2026-05-07 14:49 37.46641 126.44562 38 ft 8 kts 110°
2026-05-07 14:50 37.46610 126.44608 38 ft 8 kts 137°
2026-05-07 14:50 37.46536 126.44681 38 ft 20 kts 144°
2026-05-07 14:50 37.46401 126.44799 38 ft 25 kts 145°
2026-05-07 14:50 37.46260 126.44928 38 ft 26 kts 144°
2026-05-07 14:51 37.46110 126.45058 38 ft 26 kts 145°
2026-05-07 14:51 37.46018 126.45138 38 ft 9 kts 144°
2026-05-07 14:51 37.45913 126.45231 38 ft 18 kts 145°
2026-05-07 14:51 37.45905 126.45238 38 ft 0 kts 145°
2026-05-07 14:52 37.45903 126.45240 38 ft 3 kts 145°
2026-05-07 14:52 37.45844 126.45293 38 ft 14 kts 144°
2026-05-07 14:52 37.45731 126.45395 38 ft 29 kts 144°
2026-05-07 14:52 37.45587 126.45523 38 ft 6 kts 145°
2026-05-07 14:53 37.45545 126.45560 38 ft 9 kts 145°
2026-05-07 14:53 37.45444 126.45651 38 ft 29 kts 144°
2026-05-07 14:53 37.45315 126.45774 38 ft 17 kts 129°
2026-05-07 14:53 37.45333 126.45904 38 ft 16 kts 59°
2026-05-07 14:54 37.45351 126.45937 38 ft 0 kts 55°
2026-05-07 14:54 37.45353 126.45940 38 ft 4 kts 55°
2026-05-07 14:54 37.45417 126.46031 38 ft 20 kts 27°
2026-05-07 14:54 37.45565 126.45952 38 ft 31 kts 320°
2026-05-07 14:55 37.45968 126.45591 37 ft 110 kts 324°
2026-05-07 14:55 37.46776 126.44877 106 ft 164 kts 322°
2026-05-07 14:55 37.47722 126.43986 666 ft 176 kts 319°
2026-05-07 14:55 37.48713 126.43010 1345 ft 184 kts 321°
2026-05-07 14:56 37.49735 126.41972 2050 ft 192 kts 321°
2026-05-07 14:56 37.50797 126.40941 2744 ft 199 kts 329°
2026-05-07 14:56 37.52069 126.40163 3443 ft 208 kts 335°
2026-05-07 14:56 37.53395 126.39313 4075 ft 218 kts 331°
2026-05-07 14:57 37.54719 126.38320 4807 ft 224 kts 328°
2026-05-07 14:57 37.56090 126.37355 5529 ft 228 kts 334°
2026-05-07 14:57 37.57614 126.36699 6262 ft 234 kts 342°
2026-05-07 14:57 37.59207 126.36161 6933 ft 238 kts 341°
2026-05-07 14:58 37.60798 126.35610 7647 ft 240 kts 341°
2026-05-07 14:58 37.62489 126.35385 8269 ft 253 kts
2026-05-07 14:58 37.64144 126.36154 8945 ft 267 kts 28°
2026-05-07 14:58 37.65470 126.37876 9569 ft 283 kts 55°
2026-05-07 14:59 37.66229 126.40084 9997 ft 300 kts 70°
2026-05-07 14:59 37.66766 126.42744 10195 ft 323 kts 80°
2026-05-07 14:59 37.66744 126.45674 10403 ft 345 kts 100°
2026-05-07 14:59 37.65985 126.48622 10597 ft 362 kts 114°
2026-05-07 15:00 37.65029 126.51583 11071 ft 369 kts 114°
2026-05-07 15:00 37.63836 126.54454 11647 ft 371 kts 127°
2026-05-07 15:00 37.62172 126.56933 12276 ft 369 kts 141°
2026-05-07 15:00 37.60242 126.59094 12848 ft 372 kts 144°
2026-05-07 15:01 37.58301 126.61279 13476 ft 375 kts 144°
2026-05-07 15:01 37.56353 126.63497 14038 ft 379 kts 144°
2026-05-07 15:01 37.54428 126.65703 14602 ft 381 kts 144°
2026-05-07 15:01 37.52460 126.67962 15172 ft 384 kts 145°
2026-05-07 15:02 37.50474 126.70240 15710 ft 387 kts 145°
2026-05-07 15:02 37.48470 126.72535 16308 ft 389 kts 146°
2026-05-07 15:02 37.46460 126.74834 16830 ft 392 kts 146°
2026-05-07 15:02 37.44424 126.77158 17401 ft 395 kts 147°
2026-05-07 15:03 37.42380 126.79491 17942 ft 398 kts 147°
2026-05-07 15:03 37.40274 126.81734 18466 ft 394 kts 153°
2026-05-07 15:03 37.38096 126.83786 18903 ft 398 kts 154°
2026-05-07 15:03 37.35864 126.85886 19363 ft 401 kts 154°
2026-05-07 15:04 37.33642 126.87981 19813 ft 405 kts 154°